This is the latest recevied weather packets stored in our database for station/object GW1497. If no packets are shown the sender has not sent any weather packets the latest 10 day(s).
| Time | Temp. | Humidity | Pressure | Rain* | Wind** | Luminosity | Snow |
|---|---|---|---|---|---|---|---|
| 1778080174 | 12.22° C | 99% | 1011.5 hPa | 21.59 mm | - | - | - |
| 1778079791 | 12.22° C | 99% | 1011.5 hPa | 21.59 mm | - | - | - |
| 1778077277 | 14.44° C | 99% | 1010.4 hPa | 20.83 mm | - | - | - |
| 1778076575 | 14.44° C | 99% | 1010.1 hPa | 20.83 mm | - | - | - |
| 1778074430 | 14.44° C | 99% | 1009.4 hPa | 20.83 mm | - | - | - |
| 1778071906 | 13.89° C | 99% | 1009.8 hPa | 20.83 mm | - | - | - |
| 1778070800 | 13.89° C | 99% | 1009.4 hPa | 20.83 mm | - | - | - |
| 1778070435 | 13.89° C | 99% | 1009.4 hPa | 20.83 mm | - | - | - |
| 1778067588 | 13.33° C | 99% | 1009.4 hPa | 20.57 mm | - | - | - |
| 1778065753 | 13.33° C | 99% | 1009.4 hPa | 19.81 mm | - | - | - |
| 1778063631 | 13.33° C | 99% | 1009.1 hPa | 18.29 mm | - | - | - |
| 1778059273 | 13.33° C | 99% | 1009.1 hPa | 12.95 mm | - | - | - |
| 1778057856 | 13.33° C | 99% | 1009.4 hPa | 11.43 mm | - | - | - |
| 1778056766 | 13.89° C | 98% | 1009.8 hPa | 8.38 mm | - | - | - |
| 1778056417 | 13.89° C | 98% | 1009.8 hPa | 7.11 mm | - | - | - |
| 1778052789 | 14.44° C | 89% | 1009.4 hPa | 1.27 mm | - | - | - |
| 1778052103 | 15° C | 87% | 1009.4 hPa | 1.02 mm | - | - | - |
| 1778050278 | 16.67° C | 71% | 1009.1 hPa | 0 mm | - | - | - |
| 1778048110 | 16.67° C | 71% | 1009.4 hPa | 0 mm | - | - | - |
| 1778045952 | 16.11° C | 72% | 1010.4 hPa | 0 mm | - | - | - |
| 1778040229 | 17.22° C | 63% | 1010.8 hPa | 0 mm | - | - | - |
| 1778038035 | 18.33° C | 57% | 1010.1 hPa | 0 mm | - | - | - |
| 1778037350 | 18.33° C | 57% | 1010.4 hPa | 0 mm | - | - | - |
| 1778036267 | 18.33° C | 58% | 1011.1 hPa | 0 mm | - | - | - |
| 1778035889 | 18.89° C | 55% | 1010.8 hPa | 0 mm | - | - | - |
* Rain since midnight (hover to see other rain measurements)
** Current wind speed in m/s (hover to see current wind gust speed)